This is the latest recevied weather packets stored in our database for station/object KD9JJA. If no packets are shown the sender has not sent any weather packets the latest 10 day(s).
| Time | Temp. | Humidity | Pressure | Rain* | Wind** | Luminosity | Snow |
|---|---|---|---|---|---|---|---|
| 1777820802 | 12.78° C | 56% | 1020.9 hPa | 0 mm | - | 342 W/m² | - |
| 1777820497 | 12.78° C | 56% | 1020.7 hPa | 0 mm | - | 486 W/m² | - |
| 1777820195 | 12.78° C | 52% | 1020.9 hPa | 0 mm | - | 139 W/m² | - |
| 1777819892 | 12.78° C | 54% | 1020.9 hPa | 0 mm | - | 108 W/m² | - |
| 1777819589 | 12.78° C | 55% | 1021 hPa | 0 mm | - | 74 W/m² | - |
| 1777819287 | 12.22° C | 58% | 1021 hPa | 0 mm | - | 161 W/m² | - |
| 1777818983 | 12.22° C | 56% | 1020.9 hPa | 0 mm | - | 156 W/m² | - |
| 1777818680 | 12.22° C | 61% | 1021 hPa | 0 mm | - | 210 W/m² | - |
| 1777818377 | 12.22° C | 60% | 1020.9 hPa | 0 mm | - | 193 W/m² | - |
| 1777818074 | 11.67° C | 58% | 1021 hPa | 0 mm | - | 402 W/m² | - |
| 1777817770 | 11.67° C | 56% | 1021.1 hPa | 0 mm | - | 90 W/m² | - |
| 1777817468 | 11.67° C | 58% | 1021 hPa | 0 mm | - | 110 W/m² | - |
| 1777817164 | 11.11° C | 58% | 1021 hPa | 0 mm | - | 177 W/m² | - |
| 1777816861 | 11.11° C | 61% | 1021.3 hPa | 0 mm | - | 181 W/m² | - |
| 1777816558 | 10.56° C | 61% | 1021 hPa | 0 mm | - | 99 W/m² | - |
| 1777816255 | 10.56° C | 58% | 1021.1 hPa | 0 mm | - | 192 W/m² | - |
| 1777815953 | 10.56° C | 61% | 1021.1 hPa | 0 mm | - | 88 W/m² | - |
| 1777815650 | 10° C | 67% | 1021.1 hPa | 0 mm | - | 74 W/m² | - |
| 1777815347 | 10° C | 63% | 1021 hPa | 0 mm | - | 129 W/m² | - |
| 1777815044 | 9.44° C | 67% | 1021.3 hPa | 0 mm | - | 365 W/m² | - |
| 1777814740 | 8.89° C | 68% | 1021.3 hPa | 0 mm | - | 144 W/m² | - |
| 1777814437 | 8.89° C | 69% | 1021.3 hPa | 0 mm | - | 46 W/m² | - |
| 1777814134 | 8.33° C | 67% | 1021.3 hPa | 0 mm | - | 31 W/m² | - |
| 1777813831 | 8.33° C | 67% | 1021.3 hPa | 0 mm | - | 33 W/m² | - |
| 1777813528 | 8.33° C | 69% | 1021.5 hPa | 0 mm | - | 39 W/m² | - |
* Rain latest hour (hover to see other rain measurements)
** Current wind speed in m/s (hover to see current wind gust speed)